• In Hungary
  • List of Countries
  • For 7 days
  • Water Temperature
  • Satellite Maps
  • Weather Map
  • News
  • Weather Widgets
  • user-avatar
    Login

    Hourly Weather San Pedro de Atacama

    Today, 16 December, Saturday

    Time Temperature Precipitation Wind Pressure Humidity
    00:00 +19°C° 0 mm 1 mps 567 mmHg 30%
    01:00 +18°C° 0 mm 1 mps 566 mmHg 32%
    02:00 +18°C° 0 mm 1 mps 566 mmHg 34%
    03:00 +15°C° 0 mm 0 mps 565 mmHg 35%
    04:00 +14°C° 0 mm 0 mps 565 mmHg 36%
    05:00 +18°C° 0 mm 1 mps 566 mmHg 32%
    06:00 +20°C° 0 mm 1 mps 567 mmHg 27%
    07:00 +22°C° 0 mm 1 mps 568 mmHg 23%
    08:00 +23°C° 0 mm 2 mps 568 mmHg 20%
    09:00 +25°C° 0 mm 2 mps 569 mmHg 17%
    10:00 +27°C° 0 mm 3 mps 569 mmHg 13%
    11:00 +28°C° 0 mm 3 mps 569 mmHg 13%
    12:00 +29°C° 0 mm 4 mps 569 mmHg 12%
    13:00 +29°C° 0 mm 5 mps 569 mmHg 11%
    14:00 +29°C° 0 mm 5 mps 569 mmHg 12%
    15:00 +28°C° 0 mm 6 mps 568 mmHg 13%
    16:00 +27°C° 0 mm 6 mps 568 mmHg 15%
    17:00 +25°C° 0 mm 5 mps 568 mmHg 19%
    18:00 +23°C° 0 mm 4 mps 567 mmHg 23%
    19:00 +21°C° 0 mm 3 mps 567 mmHg 28%
    20:00 +20°C° 0 mm 2 mps 567 mmHg 30%
    21:00 +20°C° 0 mm 2 mps 568 mmHg 32%
    22:00 +20°C° 0 mm 1 mps 568 mmHg 34%
    23:00 +19°C° 0 mm 1 mps 567 mmHg 34%

    Tomorrow, 17 December, Sunday

    Time Temperature Precipitation Wind Pressure Humidity
    00:00 +19°C° 0 mm 1 mps 567 mmHg 35%
    01:00 +18°C° 0 mm 1 mps 567 mmHg 36%
    02:00 +18°C° 0 mm 1 mps 566 mmHg 37%
    03:00 +16°C° 0 mm 1 mps 566 mmHg 39%
    04:00 +16°C° 0 mm 1 mps 566 mmHg 40%
    05:00 +18°C° 0 mm 1 mps 567 mmHg 35%
    06:00 +20°C° 0 mm 1 mps 567 mmHg 31%
    07:00 +21°C° 0 mm 1 mps 568 mmHg 27%
    08:00 +23°C° 0 mm 2 mps 569 mmHg 23%
    09:00 +25°C° 0 mm 2 mps 569 mmHg 20%
    10:00 +27°C° 0 mm 3 mps 570 mmHg 16%
    11:00 +28°C° 0 mm 4 mps 570 mmHg 15%
    12:00 +29°C° 0 mm 5 mps 570 mmHg 14%
    13:00 +30°C° 0 mm 6 mps 570 mmHg 14%
    14:00 +28°C° 0.1 mm 6 mps 569 mmHg 16%
    15:00 +27°C° 0.1 mm 6 mps 569 mmHg 19%
    16:00 +25°C° 0.1 mm 5 mps 568 mmHg 21%
    17:00 +23°C° 0.3 mm 4 mps 568 mmHg 26%
    18:00 +21°C° 0.3 mm 3 mps 568 mmHg 31%
    19:00 +20°C° 0.3 mm 2 mps 568 mmHg 35%
    20:00 +20°C° 0.6 mm 2 mps 568 mmHg 39%
    21:00 +19°C° 0.6 mm 2 mps 569 mmHg 43%
    22:00 +19°C° 0.6 mm 2 mps 569 mmHg 47%
    23:00 +18°C° 0.8 mm 2 mps 568 mmHg 49%

    Day after tomorrow, 18 December, Monday

    Time Temperature Precipitation Wind Pressure Humidity
    00:00 +19°C° 0.8 mm 1 mps 568 mmHg 51%
    01:00 +19°C° 0.8 mm 1 mps 567 mmHg 52%
    02:00 +19°C° 0.7 mm 1 mps 567 mmHg 53%
    03:00 +19°C° 0.7 mm 1 mps 567 mmHg 53%
    04:00 +19°C° 0.7 mm 1 mps 567 mmHg 54%
    05:00 +19°C° 0.2 mm 1 mps 568 mmHg 52%
    06:00 +20°C° 0.2 mm 1 mps 568 mmHg 51%
    07:00 +20°C° 0.2 mm 1 mps 568 mmHg 50%
    08:00 +21°C° 0.3 mm 1 mps 569 mmHg 48%
    09:00 +22°C° 0.3 mm 1 mps 569 mmHg 47%
    10:00 +23°C° 0.3 mm 1 mps 569 mmHg 45%
    11:00 +24°C° 0.4 mm 2 mps 569 mmHg 43%
    12:00 +25°C° 0.4 mm 2 mps 569 mmHg 40%
    13:00 +26°C° 0.4 mm 3 mps 569 mmHg 38%
    14:00 +25°C° 0.3 mm 3 mps 569 mmHg 37%
    15:00 +25°C° 0.3 mm 4 mps 569 mmHg 36%
    16:00 +25°C° 0.3 mm 4 mps 569 mmHg 35%
    17:00 +23°C° 0 mm 4 mps 569 mmHg 38%
    18:00 +22°C° 0 mm 3 mps 569 mmHg 40%
    19:00 +20°C° 0 mm 3 mps 568 mmHg 43%
    20:00 +20°C° 0 mm 2 mps 569 mmHg 44%
    21:00 +19°C° 0 mm 2 mps 569 mmHg 46%
    22:00 +20°C° 0 mm 1 mps 569 mmHg 48%
    23:00 +19°C° 0 mm 1 mps 568 mmHg 49%

    19 December, Tuesday

    Time Temperature Precipitation Wind Pressure Humidity
    00:00 +19°C° 0 mm 1 mps 568 mmHg 50%
    01:00 +19°C° 0 mm 1 mps 568 mmHg 51%
    02:00 +18°C° 0 mm 1 mps 567 mmHg 53%
    03:00 +18°C° 0 mm 1 mps 567 mmHg 54%
    04:00 +16°C° 0 mm 1 mps 567 mmHg 55%
    05:00 +18°C° 0 mm 1 mps 567 mmHg 53%
    06:00 +19°C° 0 mm 1 mps 568 mmHg 50%
    07:00 +19°C° 0 mm 1 mps 568 mmHg 47%
    08:00 +20°C° 0 mm 2 mps 568 mmHg 42%
    09:00 +23°C° 0 mm 2 mps 569 mmHg 37%
    10:00 +24°C° 0 mm 2 mps 569 mmHg 32%
    11:00 +25°C° 0.1 mm 3 mps 569 mmHg 29%
    12:00 +26°C° 0.1 mm 3 mps 569 mmHg 27%
    13:00 +27°C° 0.1 mm 4 mps 569 mmHg 25%
    14:00 +27°C° 0.1 mm 4 mps 568 mmHg 25%
    15:00 +26°C° 0.1 mm 5 mps 568 mmHg 26%
    16:00 +26°C° 0.1 mm 6 mps 568 mmHg 27%
    17:00 +23°C° 0 mm 5 mps 568 mmHg 31%
    18:00 +22°C° 0 mm 4 mps 568 mmHg 35%
    19:00 +20°C° 0 mm 3 mps 568 mmHg 39%
    20:00 +20°C° 0 mm 2 mps 568 mmHg 40%
    21:00 +20°C° 0 mm 2 mps 568 mmHg 42%
    22:00 +20°C° 0 mm 1 mps 568 mmHg 43%
    23:00 +20°C° 0 mm 1 mps 568 mmHg 44%

    20 December, Wednesday

    Time Temperature Precipitation Wind Pressure Humidity
    00:00 +19°C° 0 mm 1 mps 567 mmHg 45%
    01:00 +19°C° 0 mm 1 mps 567 mmHg 47%
    02:00 +18°C° 0 mm 1 mps 567 mmHg 48%
    03:00 +18°C° 0 mm 1 mps 566 mmHg 49%
    04:00 +16°C° 0 mm 0 mps 566 mmHg 50%
    05:00 +18°C° 0 mm 1 mps 567 mmHg 48%
    06:00 +19°C° 0 mm 1 mps 567 mmHg 45%
    07:00 +20°C° 0 mm 1 mps 567 mmHg 42%
    08:00 +20°C° 0 mm 2 mps 568 mmHg 39%
    09:00 +23°C° 0 mm 2 mps 568 mmHg 35%
    10:00 +24°C° 0 mm 2 mps 568 mmHg 32%
    11:00 +25°C° 0 mm 3 mps 568 mmHg 30%
    12:00 +26°C° 0 mm 4 mps 568 mmHg 28%
    13:00 +27°C° 0 mm 5 mps 568 mmHg 26%
    14:00 +26°C° 0 mm 5 mps 567 mmHg 27%
    15:00 +24°C° 0 mm 6 mps 567 mmHg 28%
    16:00 +24°C° 0 mm 6 mps 567 mmHg 29%
    17:00 +22°C° 0 mm 5 mps 566 mmHg 33%
    18:00 +21°C° 0 mm 4 mps 566 mmHg 38%
    19:00 +19°C° 0 mm 3 mps 566 mmHg 42%
    20:00 +19°C° 0 mm 3 mps 566 mmHg 44%
    21:00 +18°C° 0 mm 2 mps 567 mmHg 45%
    22:00 +19°C° 0 mm 1 mps 567 mmHg 47%
    23:00 +19°C° 0 mm 1 mps 566 mmHg 48%

    21 December, Thursday

    Time Temperature Precipitation Wind Pressure Humidity
    00:00 +18°C° 0 mm 1 mps 566 mmHg 49%
    01:00 +18°C° 0 mm 1 mps 565 mmHg 50%
    02:00 +18°C° 0 mm 1 mps 565 mmHg 51%
    03:00 +16°C° 0 mm 1 mps 565 mmHg 51%
    04:00 +16°C° 0 mm 1 mps 565 mmHg 51%
    05:00 +16°C° 0 mm 1 mps 565 mmHg 49%
    06:00 +18°C° 0 mm 1 mps 566 mmHg 47%
    07:00 +18°C° 0 mm 1 mps 566 mmHg 45%
    08:00 +19°C° 0 mm 2 mps 566 mmHg 41%
    09:00 +20°C° 0 mm 2 mps 567 mmHg 36%
    10:00 +23°C° 0 mm 2 mps 567 mmHg 31%
    11:00 +24°C° 0 mm 3 mps 567 mmHg 29%
    12:00 +25°C° 0 mm 4 mps 567 mmHg 27%
    13:00 +26°C° 0 mm 5 mps 567 mmHg 24%
    14:00 +25°C° 0 mm 5 mps 567 mmHg 25%
    15:00 +24°C° 0 mm 6 mps 566 mmHg 25%
    16:00 +24°C° 0 mm 7 mps 566 mmHg 26%
    17:00 +22°C° 0 mm 6 mps 566 mmHg 31%
    18:00 +20°C° 0 mm 5 mps 566 mmHg 36%
    19:00 +18°C° 0 mm 3 mps 566 mmHg 42%
    20:00 +18°C° 0 mm 3 mps 566 mmHg 44%
    21:00 +17°C° 0 mm 2 mps 566 mmHg 47%
    22:00 +17°C° 0 mm 2 mps 567 mmHg 49%
    23:00 +18°C° 0 mm 1 mps 566 mmHg 50%
    Show more